WHK01 VTSP-VTBS

Flight info

Callsign WHK01
Flight time N/A
Altitude 39000
Route EMRIT1B EMRIT Y99 NONEL Y98 LEBIM LEBIM1C
Aircraft A346/H-SDE2E3FGHIJ3J4J5M1RWXY/LB1D1

Departure

Time 2026-04-29 09:57
Airport Phuket International Airport (VTSP)

Arrival

Time N/A
Airport Suvarnabhumi Airport (VTBS)
Time Latitude Longitude Altitude Speed Heading
2026-04-29 09:45 8.10839 98.30284 39 ft 0 kts 285°
2026-04-29 09:50 8.10839 98.30283 39 ft 0 kts 288°
2026-04-29 09:50 8.10836 98.30290 39 ft 2 kts 287°
2026-04-29 09:50 8.10832 98.30305 40 ft 2 kts 299°
2026-04-29 09:51 8.10822 98.30317 40 ft 2 kts 320°
2026-04-29 09:51 8.10810 98.30325 41 ft 2 kts 335°
2026-04-29 09:51 8.10796 98.30330 41 ft 2 kts 350°
2026-04-29 09:51 8.10781 98.30331 41 ft 2 kts
2026-04-29 09:52 8.10773 98.30329 42 ft 1 kts 14°
2026-04-29 09:52 8.10771 98.30329 42 ft 0 kts 14°
2026-04-29 09:53 8.10772 98.30329 41 ft 1 kts 19°
2026-04-29 09:53 8.10826 98.30353 41 ft 18 kts 25°
2026-04-29 09:54 8.10956 98.30399 42 ft 17 kts 18°
2026-04-29 09:54 8.11041 98.30572 45 ft 40 kts 92°
2026-04-29 09:54 8.11072 98.30833 48 ft 37 kts 81°
2026-04-29 09:54 8.11112 98.31010 51 ft 24 kts 76°
2026-04-29 09:55 8.11142 98.31216 53 ft 34 kts 88°
2026-04-29 09:55 8.11165 98.31469 63 ft 27 kts 85°
2026-04-29 09:55 8.11183 98.31681 77 ft 33 kts 85°
2026-04-29 09:55 8.11204 98.31905 89 ft 33 kts 84°
2026-04-29 09:56 8.11228 98.32163 97 ft 35 kts 84°
2026-04-29 09:56 8.11248 98.32378 101 ft 28 kts 84°
2026-04-29 09:56 8.11264 98.32546 104 ft 22 kts 84°
2026-04-29 09:56 8.11368 98.32634 106 ft 23 kts 334°
2026-04-29 09:57 8.11393 98.32467 102 ft 31 kts 265°
2026-04-29 09:57 8.11358 98.32018 94 ft 109 kts 264°
2026-04-29 09:57 8.11249 98.30977 152 ft 173 kts 264°
2026-04-29 09:57 8.11148 98.29853 1235 ft 163 kts 264°
2026-04-29 09:58 8.11042 98.28696 2001 ft 174 kts 264°
2026-04-29 09:58 8.10918 98.27427 2721 ft 192 kts 261°
2026-04-29 09:58 8.10375 98.26181 3350 ft 207 kts 221°
2026-04-29 09:58 8.09068 98.25535 3977 ft 223 kts 185°
2026-04-29 09:59 8.07524 98.25824 4607 ft 241 kts 149°
2026-04-29 09:59 8.06077 98.26807 5284 ft 259 kts 151°
2026-04-29 09:59 8.04325 98.27261 5989 ft 273 kts 184°
2026-04-29 09:59 8.02486 98.26910 6987 ft 277 kts 195°
2026-04-29 10:00 8.00622 98.26394 8025 ft 280 kts 195°
2026-04-29 10:00 7.98756 98.25916 9010 ft 285 kts 193°
2026-04-29 10:00 7.96836 98.25477 10007 ft 289 kts 192°
2026-04-29 10:00 7.94842 98.25105 10935 ft 297 kts 183°
2026-04-29 10:01 7.92752 98.25343 11554 ft 315 kts 161°
2026-04-29 10:01 7.90803 98.26411 12124 ft 335 kts 139°
2026-04-29 10:01 7.89298 98.28295 12689 ft 355 kts 116°
2026-04-29 10:01 7.88638 98.30751 13247 ft 374 kts 92°
2026-04-29 10:02 7.88722 98.33392 13972 ft 388 kts 87°
2026-04-29 10:02 7.88864 98.36130 14933 ft 396 kts 87°
2026-04-29 10:02 7.88996 98.38912 15931 ft 401 kts 87°
2026-04-29 10:02 7.89115 98.41707 16887 ft 406 kts 88°
2026-04-29 10:03 7.89230 98.44585 17825 ft 412 kts 88°
2026-04-29 10:03 7.89341 98.47462 18725 ft 418 kts 88°
2026-04-29 10:03 7.89650 98.50374 19596 ft 423 kts 77°
2026-04-29 10:03 7.90567 98.53191 20455 ft 428 kts 65°
2026-04-29 10:04 7.92069 98.55784 21290 ft 433 kts 54°
2026-04-29 10:04 7.93843 98.58243 22109 ft 438 kts 53°
2026-04-29 10:04 7.95664 98.60697 22882 ft 444 kts 53°
2026-04-29 10:04 7.97534 98.63223 23644 ft 449 kts 53°
2026-04-29 10:05 7.99379 98.65733 24377 ft 454 kts 53°
2026-04-29 10:05 8.01264 98.68327 25102 ft 459 kts 53°
2026-04-29 10:05 8.03150 98.70931 25799 ft 464 kts 54°
2026-04-29 10:05 8.05050 98.73554 26471 ft 468 kts 53°
2026-04-29 10:06 8.06968 98.76202 27121 ft 473 kts 54°
2026-04-29 10:06 8.08683 98.79029 27892 ft 474 kts 64°
2026-04-29 10:06 8.09874 98.82095 28795 ft 470 kts 74°
2026-04-29 10:06 8.10534 98.85287 29661 ft 467 kts 82°
2026-04-29 10:07 8.10867 98.88520 30452 ft 464 kts 84°
2026-04-29 10:07 8.11285 98.91715 31141 ft 463 kts 79°
2026-04-29 10:07 8.12017 98.94891 31789 ft 462 kts 73°
2026-04-29 10:07 8.13109 98.97933 32414 ft 461 kts 66°
2026-04-29 10:08 8.14532 99.00766 33004 ft 460 kts 59°
2026-04-29 10:08 8.16326 99.03469 33580 ft 459 kts 52°
2026-04-29 10:08 8.18379 99.05901 34117 ft 458 kts 47°
2026-04-29 10:08 8.20534 99.08220 34631 ft 457 kts 46°
2026-04-29 10:09 8.22706 99.10513 35116 ft 456 kts 46°
2026-04-29 10:09 8.24906 99.12832 35580 ft 455 kts 46°
2026-04-29 10:09 8.27070 99.15121 36008 ft 454 kts 46°
2026-04-29 10:09 8.29246 99.17432 36408 ft 453 kts 46°
2026-04-29 10:10 8.31395 99.19717 36771 ft 453 kts 46°
2026-04-29 10:10 8.33575 99.22037 37107 ft 453 kts 46°
2026-04-29 10:10 8.35718 99.24317 37414 ft 453 kts 46°
2026-04-29 10:10 8.37892 99.26630 37712 ft 453 kts 45°
2026-04-29 10:11 8.40168 99.28770 37976 ft 453 kts 39°
2026-04-29 10:11 8.42717 99.30642 38224 ft 453 kts 32°
2026-04-29 10:11 8.45473 99.32186 38471 ft 454 kts 25°
2026-04-29 10:11 8.48362 99.33369 38708 ft 453 kts 18°
2026-04-29 10:12 8.51418 99.34201 38931 ft 454 kts 11°
2026-04-29 10:12 8.54554 99.34654 39003 ft 458 kts
2026-04-29 10:12 8.60942 99.34991 39015 ft 469 kts
2026-04-29 10:13 8.67493 99.35281 39015 ft 479 kts
2026-04-29 10:13 8.74175 99.35608 39016 ft 487 kts
2026-04-29 10:14 8.80971 99.35943 39015 ft 494 kts
2026-04-29 10:14 8.87851 99.36295 39047 ft 499 kts
2026-04-29 10:15 8.91325 99.36506 39230 ft 498 kts
2026-04-29 10:15 8.94727 99.36717 39491 ft 495 kts
2026-04-29 10:15 8.98169 99.36935 39757 ft 492 kts
2026-04-29 10:15 9.01527 99.37212 40019 ft 489 kts
2026-04-29 10:16 9.04889 99.37740 40296 ft 485 kts 13°
2026-04-29 10:16 9.08062 99.38697 40569 ft 480 kts 22°
2026-04-29 10:16 9.10988 99.40282 40817 ft 476 kts 37°
2026-04-29 10:16 9.13338 99.42556 41056 ft 471 kts 55°
2026-04-29 10:17 9.14772 99.45491 41305 ft 465 kts 77°
2026-04-29 10:17 9.14967 99.48702 41578 ft 457 kts 101°
2026-04-29 10:17 9.13916 99.51660 41858 ft 448 kts 124°
2026-04-29 10:17 9.11801 99.53904 42120 ft 439 kts 149°
2026-04-29 10:18 9.09053 99.55022 42331 ft 431 kts 174°
2026-04-29 10:18 9.06095 99.54851 42476 ft 423 kts 200°
2026-04-29 10:18 9.03589 99.53447 42534 ft 418 kts 226°
2026-04-29 10:18 9.01938 99.51060 42488 ft 415 kts 252°
2026-04-29 10:19 9.01498 99.48230 42298 ft 416 kts 278°
2026-04-29 10:19 9.02344 99.45447 42023 ft 419 kts 304°
2026-04-29 10:19 9.04313 99.43308 41719 ft 424 kts 329°
2026-04-29 10:19 9.07018 99.42217 41414 ft 429 kts 354°
2026-04-29 10:20 9.09986 99.42384 41129 ft 435 kts 19°
2026-04-29 10:20 9.12638 99.43796 40886 ft 439 kts 43°
2026-04-29 10:20 9.14528 99.46252 40685 ft 444 kts 67°
2026-04-29 10:20 9.15255 99.49235 40531 ft 447 kts 91°
2026-04-29 10:21 9.14711 99.52343 40400 ft 450 kts 115°
2026-04-29 10:21 9.12995 99.54928 40273 ft 454 kts 138°
2026-04-29 10:21 9.10317 99.56640 40117 ft 458 kts 162°
2026-04-29 10:21 9.07191 99.57111 39908 ft 464 kts 185°
2026-04-29 10:22 9.04086 99.56268 39619 ft 472 kts 208°
2026-04-29 10:22 9.01494 99.54205 39229 ft 482 kts 231°
2026-04-29 10:22 8.99872 99.51265 38751 ft 494 kts 253°
2026-04-29 10:22 8.99381 99.47785 38346 ft 504 kts 267°
2026-04-29 10:23 8.99253 99.44267 38460 ft 503 kts 268°
2026-04-29 10:23 8.99158 99.40747 38776 ft 499 kts 269°
2026-04-29 10:23 8.99097 99.37289 39139 ft 494 kts 269°
2026-04-29 10:23 8.99076 99.33841 39479 ft 490 kts 270°
2026-04-29 10:24 8.99210 99.30409 39827 ft 485 kts 275°
2026-04-29 10:24 8.99687 99.27101 40152 ft 480 kts 283°
2026-04-29 10:24 9.00715 99.23894 40452 ft 476 kts 295°
2026-04-29 10:24 9.02436 99.21059 40688 ft 472 kts 311°
2026-04-29 10:25 9.04893 99.18928 40860 ft 468 kts 332°
2026-04-29 10:25 9.07904 99.17887 40991 ft 465 kts 355°
2026-04-29 10:25 9.11096 99.18119 41120 ft 462 kts 18°
2026-04-29 10:25 9.13919 99.19595 41259 ft 458 kts 41°
2026-04-29 10:26 9.15906 99.22043 41420 ft 453 kts 65°
2026-04-29 10:26 9.16758 99.25065 41604 ft 447 kts 89°
2026-04-29 10:26 9.16343 99.28112 41804 ft 440 kts 113°
2026-04-29 10:26 9.14743 99.30697 42006 ft 432 kts 138°
2026-04-29 10:27 9.09416 99.32720 42333 ft 417 kts 189°
2026-04-29 10:27 9.06736 99.31840 42412 ft 411 kts 215°
2026-04-29 10:27 9.04703 99.29860 42317 ft 410 kts 241°
2026-04-29 10:28 9.03734 99.27153 42010 ft 414 kts 267°
2026-04-29 10:28 9.04059 99.24260 41618 ft 421 kts 293°
2026-04-29 10:28 9.05615 99.21770 41180 ft 431 kts 318°
2026-04-29 10:28 9.08153 99.20135 40704 ft 442 kts 343°
2026-04-29 10:29 9.11182 99.19701 40215 ft 454 kts
2026-04-29 10:29 9.14274 99.20376 40016 ft 461 kts 21°
2026-04-29 10:29 9.17159 99.21809 40023 ft 464 kts 34°
2026-04-29 10:29 9.19616 99.23857 40057 ft 467 kts 47°
2026-04-29 10:30 9.21614 99.26489 39959 ft 473 kts 60°
2026-04-29 10:30 9.22983 99.29499 39720 ft 481 kts 72°
2026-04-29 10:30 9.23749 99.32846 39485 ft 490 kts 79°
2026-04-29 10:30 9.24717 99.36145 39219 ft 498 kts 63°
2026-04-29 10:31 9.26578 99.39123 39064 ft 499 kts 55°
2026-04-29 10:31 9.28546 99.41980 38962 ft 493 kts 55°
2026-04-29 10:31 9.30460 99.44788 38845 ft 489 kts 54°
2026-04-29 10:31 9.32644 99.47330 38954 ft 478 kts 38°
2026-04-29 10:32 9.35470 99.48973 38993 ft 469 kts 17°
2026-04-29 10:32 9.38651 99.49506 39012 ft 467 kts 357°
2026-04-29 10:32 9.41850 99.48862 39010 ft 470 kts 336°
2026-04-29 10:33 9.47615 99.45679 39018 ft 479 kts 338°
2026-04-29 10:33 9.50837 99.44867 39012 ft 481 kts 357°
2026-04-29 10:33 9.54157 99.45165 39018 ft 483 kts 16°
2026-04-29 10:33 9.57272 99.46462 39028 ft 486 kts 27°
2026-04-29 10:34 9.60292 99.48034 39020 ft 490 kts 26°
2026-04-29 10:34 9.66553 99.50848 39014 ft 496 kts 21°
2026-04-29 10:35 9.72970 99.53169 39008 ft 481 kts 18°
2026-04-29 10:35 9.76088 99.54201 39010 ft 465 kts 18°
2026-04-29 10:35 9.79143 99.55183 39014 ft 465 kts 17°
2026-04-29 10:36 9.85294 99.57124 39014 ft 465 kts 17°
2026-04-29 10:36 9.91462 99.59055 39014 ft 465 kts 17°
2026-04-29 10:37 9.97613 99.60974 39015 ft 465 kts 17°
2026-04-29 10:37 10.03763 99.62894 39014 ft 465 kts 17°
2026-04-29 10:38 10.09926 99.64819 39014 ft 465 kts 17°
2026-04-29 10:38 10.16130 99.66771 39014 ft 465 kts 17°
2026-04-29 10:39 10.22289 99.68710 39014 ft 465 kts 17°
2026-04-29 10:39 10.28421 99.70632 39014 ft 465 kts 17°
2026-04-29 10:40 10.34585 99.72561 39014 ft 465 kts 17°
2026-04-29 10:40 10.40763 99.74493 39014 ft 465 kts 17°
2026-04-29 10:41 10.46951 99.76430 39014 ft 465 kts 17°
2026-04-29 10:41 10.53109 99.78358 39014 ft 465 kts 17°
2026-04-29 10:42 10.59262 99.80285 39014 ft 465 kts 17°
2026-04-29 10:42 10.65429 99.82217 39014 ft 465 kts 17°
2026-04-29 10:43 10.71583 99.84145 39014 ft 465 kts 17°
2026-04-29 10:43 10.77727 99.86072 39014 ft 465 kts 17°
2026-04-29 10:44 10.83922 99.88035 39014 ft 465 kts 19°
2026-04-29 10:44 10.89886 99.90434 39014 ft 465 kts 25°
2026-04-29 10:45 10.95606 99.93458 39014 ft 465 kts 29°
2026-04-29 10:45 11.01273 99.96657 39014 ft 465 kts 29°
2026-04-29 10:46 11.06906 99.99836 39014 ft 465 kts 29°
2026-04-29 10:46 11.12540 100.03006 39014 ft 465 kts 28°
2026-04-29 10:47 11.18186 100.06170 39014 ft 465 kts 29°
2026-04-29 10:47 11.23848 100.09353 39014 ft 465 kts 29°
2026-04-29 10:48 11.29505 100.12540 39014 ft 465 kts 29°
2026-04-29 10:48 11.35140 100.15717 39014 ft 465 kts 29°
2026-04-29 10:49 11.40764 100.18890 39014 ft 465 kts 29°
2026-04-29 10:49 11.46420 100.22084 39014 ft 465 kts 29°
2026-04-29 10:50 11.52064 100.25273 39014 ft 465 kts 29°
2026-04-29 10:50 11.57710 100.28464 39014 ft 466 kts 29°
2026-04-29 10:51 11.63323 100.31634 39014 ft 466 kts 29°
2026-04-29 10:51 11.68967 100.34827 39014 ft 466 kts 29°
2026-04-29 10:52 11.74621 100.38029 39014 ft 466 kts 29°
2026-04-29 10:52 11.80301 100.41082 39013 ft 465 kts 24°
2026-04-29 10:53 11.86405 100.43275 39013 ft 466 kts 14°
2026-04-29 10:53 11.92742 100.44382 38979 ft 460 kts
2026-04-29 10:53 11.95898 100.44553 38514 ft 458 kts
2026-04-29 10:54 11.99069 100.44636 37562 ft 465 kts
2026-04-29 10:54 12.02314 100.44699 36695 ft 468 kts
2026-04-29 10:54 12.05551 100.44764 35954 ft 467 kts
2026-04-29 10:54 12.08791 100.44833 35233 ft 467 kts
2026-04-29 10:55 12.12012 100.44907 34477 ft 467 kts
2026-04-29 10:55 12.15240 100.44984 33682 ft 468 kts
2026-04-29 10:55 12.18474 100.45062 32847 ft 470 kts
2026-04-29 10:55 12.21726 100.45142 32140 ft 468 kts
2026-04-29 10:56 12.24978 100.45223 31546 ft 465 kts
2026-04-29 10:56 12.28176 100.45303 30927 ft 462 kts
2026-04-29 10:56 12.31328 100.45383 30308 ft 459 kts
2026-04-29 10:56 12.34501 100.45463 29678 ft 457 kts
2026-04-29 10:57 12.37663 100.45543 29039 ft 455 kts
2026-04-29 10:57 12.40814 100.45622 28397 ft 454 kts
2026-04-29 10:57 12.43959 100.45702 27747 ft 452 kts
2026-04-29 10:57 12.47059 100.45780 27097 ft 451 kts
2026-04-29 10:58 12.50184 100.45860 26436 ft 450 kts
2026-04-29 10:58 12.53314 100.45939 25753 ft 449 kts
2026-04-29 10:58 12.56418 100.46018 25173 ft 446 kts
2026-04-29 10:58 12.59465 100.46094 24782 ft 438 kts
2026-04-29 10:59 12.62482 100.46171 24356 ft 433 kts
2026-04-29 10:59 12.65489 100.46248 23924 ft 428 kts
2026-04-29 10:59 12.68435 100.46323 23496 ft 423 kts
2026-04-29 10:59 12.71382 100.46398 23067 ft 420 kts
2026-04-29 11:00 12.74276 100.46472 22641 ft 416 kts
2026-04-29 11:00 12.77117 100.46545 22221 ft 413 kts
2026-04-29 11:00 12.79975 100.46618 21796 ft 411 kts
2026-04-29 11:00 12.82834 100.46690 21371 ft 408 kts
2026-04-29 11:01 12.85664 100.46763 20949 ft 405 kts
2026-04-29 11:01 12.88441 100.46835 20531 ft 403 kts
2026-04-29 11:01 12.91221 100.46905 20112 ft 400 kts
2026-04-29 11:01 12.93990 100.46977 19694 ft 398 kts
2026-04-29 11:02 12.96728 100.47049 19277 ft 395 kts
2026-04-29 11:02 12.99450 100.47119 18861 ft 393 kts
2026-04-29 11:02 13.02197 100.47189 18442 ft 390 kts
2026-04-29 11:02 13.04871 100.47259 18031 ft 388 kts
2026-04-29 11:03 13.07525 100.47620 17607 ft 386 kts 14°
2026-04-29 11:03 13.10038 100.48514 17187 ft 383 kts 25°
2026-04-29 11:03 13.12338 100.49883 16775 ft 381 kts 34°
2026-04-29 11:03 13.14489 100.51423 16361 ft 379 kts 35°
2026-04-29 11:04 13.16619 100.52991 15950 ft 376 kts 36°
2026-04-29 11:04 13.18726 100.54539 15541 ft 374 kts 35°
2026-04-29 11:04 13.20836 100.56081 15132 ft 372 kts 35°
2026-04-29 11:04 13.22943 100.57612 14722 ft 369 kts 35°
2026-04-29 11:05 13.25039 100.59131 14314 ft 367 kts 35°
2026-04-29 11:05 13.27120 100.60637 13923 ft 370 kts 35°
2026-04-29 11:05 13.29269 100.62186 13874 ft 388 kts 35°
2026-04-29 11:05 13.31484 100.63785 13898 ft 389 kts 35°
2026-04-29 11:06 13.33697 100.65384 13921 ft 389 kts 35°
2026-04-29 11:06 13.35911 100.66996 13938 ft 389 kts 35°
2026-04-29 11:06 13.38100 100.68591 13769 ft 387 kts 35°
2026-04-29 11:06 13.40277 100.70171 13180 ft 386 kts 35°
2026-04-29 11:07 13.42436 100.71733 12718 ft 379 kts 35°
2026-04-29 11:07 13.44572 100.73280 12531 ft 364 kts 35°
2026-04-29 11:07 13.46591 100.74744 12504 ft 346 kts 35°
2026-04-29 11:07 13.48497 100.76125 12398 ft 332 kts 35°
2026-04-29 11:08 13.50350 100.77469 12198 ft 321 kts 35°
2026-04-29 11:08 13.52144 100.78770 12010 ft 310 kts 35°
2026-04-29 11:08 13.53860 100.79998 11825 ft 300 kts 32°
2026-04-29 11:08 13.55683 100.80989 11541 ft 294 kts 22°
2026-04-29 11:09 13.57604 100.81655 11155 ft 293 kts 15°
2026-04-29 11:09 13.59574 100.82196 10756 ft 291 kts 14°
2026-04-29 11:09 13.61513 100.82709 10371 ft 290 kts 14°
2026-04-29 11:09 13.63456 100.83229 9987 ft 288 kts 14°
2026-04-29 11:10 13.65374 100.83749 9607 ft 287 kts 15°
2026-04-29 11:10 13.67291 100.84271 9227 ft 285 kts 15°
2026-04-29 11:10 13.69216 100.84797 8848 ft 283 kts 15°
2026-04-29 11:10 13.71085 100.85308 8480 ft 281 kts 15°
2026-04-29 11:11 13.72988 100.85829 8102 ft 280 kts 15°
2026-04-29 11:11 13.74854 100.86340 7729 ft 278 kts 15°
2026-04-29 11:11 13.76702 100.86847 7361 ft 277 kts 15°
2026-04-29 11:11 13.78564 100.87357 6990 ft 275 kts 15°
2026-04-29 11:12 13.80403 100.87861 6716 ft 270 kts 15°
2026-04-29 11:12 13.82180 100.88348 6548 ft 261 kts 15°
2026-04-29 11:12 13.83892 100.88818 6383 ft 252 kts 15°
2026-04-29 11:12 13.85574 100.89247 6218 ft 244 kts
2026-04-29 11:13 13.87181 100.88972 6032 ft 235 kts 328°
2026-04-29 11:13 13.88322 100.87836 5871 ft 226 kts 300°
2026-04-29 11:13 13.88821 100.86359 5717 ft 219 kts 275°
2026-04-29 11:13 13.88747 100.84825 5553 ft 206 kts 262°
2026-04-29 11:14 13.88554 100.83420 5343 ft 195 kts 261°